Location: Yecla
(38.6122°N, 1.1101°W)
Time: 08:01:16
(UTC+02:00)

ISS - Pass Details

Date: 03 April 2019
Orbit: 408 x 410 km, 51.6° (Epoch: 26 April)

Event Time Altitude Azimuth Distance (km) Brightness Sun altitude
Rises 21:40:06 0° 318° (NW) 2,336 1.2 -14.2°
Reaches altitude 10° 21:42:47 10° 341° (NNW) 1,472 -0.5 -14.7°
Maximum altitude 21:44:54 16° 21° (NNE) 1,169 -1.5 -15.1°
Enters shadow 21:46:06 14° 47° (NE) 1,271 -1.6 -15.3°
